• En España
  • Lista de países
  • Para 7 días
  • Temperatura del agua
  • Mapa Satelital
  • El tiempo en el mapa
  • Informadores
  • user-avatar
    Iniciar sesión

    Tiempo cada hora Alicante

    Hoy, 22 Febrero, Jueves

    Tiempo Temperatura Precipitaciones Viento Presión Humedad
    00:00 +9°C° 0 mm 3 mps 755 mmHg 81%
    01:00 +8°C° 0,1 mm 3 mps 755 mmHg 81%
    02:00 +8°C° 0,1 mm 3 mps 755 mmHg 81%
    03:00 +7°C° 0,1 mm 3 mps 755 mmHg 81%
    04:00 +7°C° 0,1 mm 3 mps 755 mmHg 78%
    05:00 +7°C° 0,1 mm 3 mps 755 mmHg 76%
    06:00 +5°C° 0,1 mm 3 mps 755 mmHg 74%
    07:00 +7°C° 0,1 mm 3 mps 755 mmHg 66%
    08:00 +8°C° 0,1 mm 3 mps 755 mmHg 57%
    09:00 +9°C° 0,1 mm 3 mps 755 mmHg 49%
    10:00 +10°C° 0,1 mm 3 mps 755 mmHg 43%
    11:00 +12°C° 0,1 mm 4 mps 754 mmHg 37%
    12:00 +13°C° 0,1 mm 4 mps 754 mmHg 31%
    13:00 +14°C° 0 mm 5 mps 754 mmHg 29%
    14:00 +14°C° 0 mm 5 mps 753 mmHg 27%
    15:00 +15°C° 0 mm 5 mps 753 mmHg 26%
    16:00 +14°C° 0 mm 5 mps 753 mmHg 29%
    17:00 +12°C° 0 mm 4 mps 753 mmHg 32%
    18:00 +11°C° 0 mm 3 mps 753 mmHg 34%
    19:00 +10°C° 0 mm 4 mps 753 mmHg 38%
    20:00 +8°C° 0 mm 4 mps 754 mmHg 42%
    21:00 +8°C° 0 mm 4 mps 754 mmHg 46%
    22:00 +7°C° 0 mm 4 mps 754 mmHg 45%
    23:00 +6°C° 0 mm 4 mps 754 mmHg 43%

    Mañana, 23 Febrero, Viernes

    Tiempo Temperatura Precipitaciones Viento Presión Humedad
    00:00 +5°C° 0 mm 4 mps 755 mmHg 42%
    01:00 +5°C° 0 mm 4 mps 755 mmHg 42%
    02:00 +4°C° 0 mm 4 mps 754 mmHg 42%
    03:00 +3°C° 0 mm 4 mps 754 mmHg 42%
    04:00 +3°C° 0 mm 4 mps 754 mmHg 44%
    05:00 +3°C° 0 mm 4 mps 755 mmHg 45%
    06:00 +1°C° 0 mm 4 mps 755 mmHg 46%
    07:00 +4°C° 0 mm 4 mps 755 mmHg 43%
    08:00 +5°C° 0 mm 3 mps 755 mmHg 41%
    09:00 +7°C° 0 mm 3 mps 755 mmHg 38%
    10:00 +9°C° 0 mm 3 mps 755 mmHg 37%
    11:00 +10°C° 0 mm 3 mps 755 mmHg 37%
    12:00 +11°C° 0 mm 3 mps 755 mmHg 36%
    13:00 +12°C° 0 mm 3 mps 755 mmHg 36%
    14:00 +12°C° 0 mm 3 mps 754 mmHg 36%
    15:00 +12°C° 0 mm 3 mps 754 mmHg 36%
    16:00 +11°C° 0 mm 3 mps 754 mmHg 45%
    17:00 +10°C° 0 mm 3 mps 754 mmHg 54%
    18:00 +9°C° 0 mm 3 mps 754 mmHg 64%
    19:00 +8°C° 0 mm 3 mps 754 mmHg 69%
    20:00 +7°C° 0 mm 2 mps 755 mmHg 75%
    21:00 +7°C° 0 mm 2 mps 755 mmHg 81%
    22:00 +6°C° 0 mm 2 mps 755 mmHg 83%
    23:00 +6°C° 0 mm 2 mps 755 mmHg 84%

    Pasado mañana, 24 Febrero, Sábado

    Tiempo Temperatura Precipitaciones Viento Presión Humedad
    00:00 +6°C° 0 mm 2 mps 755 mmHg 86%
    01:00 +5°C° 0 mm 2 mps 755 mmHg 86%
    02:00 +5°C° 0 mm 2 mps 754 mmHg 87%
    03:00 +5°C° 0 mm 2 mps 754 mmHg 87%
    04:00 +4°C° 0,1 mm 2 mps 754 mmHg 88%
    05:00 +4°C° 0,1 mm 2 mps 754 mmHg 88%
    06:00 +4°C° 0,1 mm 2 mps 754 mmHg 88%
    07:00 +6°C° 0,1 mm 2 mps 754 mmHg 81%
    08:00 +8°C° 0,1 mm 2 mps 755 mmHg 75%
    09:00 +9°C° 0,1 mm 2 mps 755 mmHg 69%
    10:00 +10°C° 0 mm 2 mps 755 mmHg 63%
    11:00 +13°C° 0 mm 2 mps 755 mmHg 58%
    12:00 +13°C° 0 mm 3 mps 755 mmHg 53%
    13:00 +13°C° 0 mm 3 mps 755 mmHg 51%
    14:00 +14°C° 0 mm 3 mps 754 mmHg 48%
    15:00 +14°C° 0 mm 3 mps 754 mmHg 46%
    16:00 +13°C° 0 mm 3 mps 755 mmHg 54%
    17:00 +12°C° 0 mm 3 mps 755 mmHg 62%
    18:00 +11°C° 0 mm 3 mps 755 mmHg 70%
    19:00 +10°C° 0 mm 2 mps 756 mmHg 76%
    20:00 +10°C° 0 mm 2 mps 756 mmHg 82%
    21:00 +9°C° 0 mm 2 mps 757 mmHg 88%
    22:00 +9°C° 0 mm 2 mps 757 mmHg 88%
    23:00 +9°C° 0 mm 2 mps 757 mmHg 89%

    25 Febrero, Domingo

    Tiempo Temperatura Precipitaciones Viento Presión Humedad
    00:00 +10°C° 0 mm 1 mps 757 mmHg 89%
    01:00 +9°C° 0 mm 2 mps 757 mmHg 90%
    02:00 +9°C° 0 mm 2 mps 757 mmHg 91%
    03:00 +8°C° 0 mm 2 mps 757 mmHg 91%
    04:00 +8°C° 0 mm 2 mps 757 mmHg 91%
    05:00 +7°C° 0 mm 2 mps 757 mmHg 91%
    06:00 +7°C° 0 mm 3 mps 757 mmHg 91%
    07:00 +9°C° 0 mm 3 mps 757 mmHg 82%
    08:00 +10°C° 0 mm 3 mps 758 mmHg 73%
    09:00 +12°C° 0 mm 4 mps 758 mmHg 64%
    10:00 +14°C° 0 mm 4 mps 758 mmHg 57%
    11:00 +15°C° 0 mm 4 mps 758 mmHg 49%
    12:00 +18°C° 0 mm 4 mps 758 mmHg 42%
    13:00 +17°C° 0 mm 5 mps 757 mmHg 40%
    14:00 +17°C° 0 mm 5 mps 757 mmHg 39%
    15:00 +19°C° 0 mm 5 mps 756 mmHg 37%
    16:00 +16°C° 0 mm 5 mps 756 mmHg 43%
    17:00 +15°C° 0 mm 4 mps 756 mmHg 48%
    18:00 +14°C° 0 mm 4 mps 757 mmHg 53%
    19:00 +13°C° 0 mm 4 mps 757 mmHg 58%
    20:00 +12°C° 0 mm 3 mps 757 mmHg 63%
    21:00 +11°C° 0 mm 3 mps 757 mmHg 68%
    22:00 +11°C° 0 mm 3 mps 757 mmHg 69%
    23:00 +10°C° 0 mm 3 mps 757 mmHg 70%

    26 Febrero, Lunes

    Tiempo Temperatura Precipitaciones Viento Presión Humedad
    00:00 +10°C° 0 mm 3 mps 757 mmHg 71%
    01:00 +9°C° 0 mm 2 mps 756 mmHg 72%
    02:00 +9°C° 0 mm 2 mps 756 mmHg 72%
    03:00 +9°C° 0 mm 2 mps 756 mmHg 73%
    04:00 +8°C° 0 mm 2 mps 755 mmHg 74%
    05:00 +8°C° 0 mm 2 mps 755 mmHg 76%
    06:00 +8°C° 0 mm 2 mps 755 mmHg 77%
    07:00 +10°C° 0 mm 2 mps 755 mmHg 69%
    08:00 +13°C° 0 mm 2 mps 755 mmHg 61%
    09:00 +15°C° 0 mm 2 mps 754 mmHg 53%
    10:00 +16°C° 0 mm 3 mps 754 mmHg 48%
    11:00 +18°C° 0 mm 3 mps 753 mmHg 43%
    12:00 +19°C° 0 mm 3 mps 753 mmHg 38%
    13:00 +19°C° 0 mm 3 mps 752 mmHg 37%
    14:00 +20°C° 0 mm 4 mps 752 mmHg 37%
    15:00 +20°C° 0 mm 4 mps 751 mmHg 36%
    16:00 +19°C° 0 mm 3 mps 751 mmHg 43%
    17:00 +17°C° 0 mm 3 mps 751 mmHg 49%
    18:00 +16°C° 0 mm 3 mps 750 mmHg 56%
    19:00 +15°C° 0 mm 2 mps 751 mmHg 58%
    20:00 +15°C° 0 mm 2 mps 751 mmHg 61%
    21:00 +15°C° 0 mm 1 mps 751 mmHg 63%
    22:00 +15°C° 0,1 mm 1 mps 751 mmHg 66%
    23:00 +14°C° 0,1 mm 1 mps 751 mmHg 69%

    27 Febrero, Martes

    Tiempo Temperatura Precipitaciones Viento Presión Humedad
    00:00 +14°C° 0,1 mm 1 mps 751 mmHg 72%
    01:00 +13°C° 0,7 mm 2 mps 751 mmHg 76%
    02:00 +13°C° 0,7 mm 2 mps 751 mmHg 80%
    03:00 +12°C° 0,7 mm 2 mps 751 mmHg 84%
    04:00 +13°C° 0,6 mm 2 mps 751 mmHg 83%
    05:00 +13°C° 0,6 mm 2 mps 751 mmHg 83%
    06:00 +13°C° 0,6 mm 2 mps 751 mmHg 83%
    07:00 +13°C° 0 mm 3 mps 751 mmHg 76%
    08:00 +14°C° 0 mm 5 mps 752 mmHg 69%
    09:00 +15°C° 0 mm 6 mps 752 mmHg 62%
    10:00 +16°C° 0 mm 7 mps 752 mmHg 56%
    11:00 +17°C° 0 mm 8 mps 753 mmHg 50%
    12:00 +18°C° 0 mm 9 mps 753 mmHg 44%
    13:00 +18°C° 0 mm 9 mps 753 mmHg 41%
    14:00 +18°C° 0 mm 8 mps 753 mmHg 39%
    15:00 +20°C° 0 mm 8 mps 753 mmHg 37%
    16:00 +17°C° 0 mm 7 mps 754 mmHg 41%
    17:00 +16°C° 0 mm 6 mps 754 mmHg 46%
    18:00 +15°C° 0 mm 5 mps 755 mmHg 50%
    19:00 +14°C° 0 mm 4 mps 756 mmHg 55%
    20:00 +13°C° 0 mm 3 mps 756 mmHg 60%
    21:00 +12°C° 0 mm 3 mps 757 mmHg 65%
    22:00 +12°C° 0 mm 3 mps 757 mmHg 66%
    23:00 +12°C° 0 mm 2 mps 757 mmHg 67%
    Mostrar más